Skip Page Navigation
NASA JPL Caltech
NASA Logo - Jet Propulsion Laboratory + View the NASA Portal
+ Near-Earth Object (NEO) Program
Search JPL
JPL Home Earth Solar System Stars & Galaxies Technology
JPL Solar System Dynamics
BODIES ORBITS EPHEMERIDES TOOLS PHYSICAL DATA DISCOVERY FAQ SITE MAP
JPL Small-Body Database Browser
Search: [ help ]  
(2011 OB)
Classification: Aten [NEO, PHA]          SPK-ID: 3572706
Ephemeris | Orbit Diagram | Orbital Elements | Physical Parameters | Close-Approach Data ]

[ hide orbit diagram ]
Orbit Diagram
Note: Make sure you have Java enabled on your browser to see the applet. This applet is provided as a 3D orbit visualization tool. The applet was implemented using 2-body methods, and hence should not be used for determining accurate long-term trajectories (over several years or decades) or planetary encounter circumstances. For accurate long-term ephemerides, please instead use our Horizons system.
Orbit Viewer

Additional Notes: the orbits shown in the applet are color coded. The planets are white lines, and the asteroid/comet is a blue line. The bright white line indicates the portion of the orbit that is above the ecliptic plane, and the darker portion is below the ecliptic plane. Likewise for the asteroid/comet orbit, the light blue indicates the portion above the ecliptic plane, and the dark blue the portion below the ecliptic plane.

Orbit Viewer applet originally written and kindly provided by Osamu Ajiki (AstroArts), and further modified by Ron Baalke (JPL).


Orbital Elements at Epoch 2456400.5 (2013-Apr-18.0) TDB
Reference: JPL 14 (heliocentric ecliptic J2000)
 Element Value Uncertainty (1-sigma)   Units 
e .5240322410533665 1.0681e-06  
a .9038860903965923 7.2388e-08 AU
q .4302206367891002 9.6388e-07 AU
i 27.74544026610507 0.00011133 deg
node 106.2774406506943 6.5099e-05 deg
peri 48.86550862246715 4.6407e-05 deg
M 89.46434050217047 0.00015983 deg
tp 2456322.496076848274
(2013-Jan-29.99607685)
0.00013326 JED
period 313.8838578253442
0.86
3.7706e-05
1.032e-07
d
yr
n 1.14692103790924 1.3778e-07 deg/d
Q 1.377551544004084 1.1032e-07 AU
  Orbit Determination Parameters
   # obs. used (total)      56  
   data-arc span      6958 days (19.05 yr)  
   first obs. used      1993-08-12  
   last obs. used      2012-08-30  
   planetary ephem.      DE405  
   SB-pert. ephem.      SB405-CPV-2  
   condition code      1  
   fit RMS      .26199  
   data source      ORB  
   producer      Otto Matic  
   solution date      2012-Aug-31 00:52:04  

Additional Information
 Earth MOID = .00969708 AU 
 T_jup = 6.385 
[ show covariance matrix ]

Ephemeris | Orbit Diagram | Orbital Elements | Physical Parameters | Close-Approach Data ]

Physical Parameter Table
Parameter Symbol Value Units Sigma Reference Notes
absolute magnitude H 19.347 mag .49384 14 autocmod 2.5b

[ show close-approach data ]
Ephemeris | Orbit Diagram | Orbital Elements | Physical Parameters | Close-Approach Data ]
ABOUT SSD CREDITS/AWARDS PRIVACY/COPYRIGHT GLOSSARY LINKS
FirstGov 2013-May-23 23:18 UT
(server date/time)  
NASA Home Page
Site Manager:   Donald K. Yeomans
Webmaster  Alan B. Chamberlin